This is the latest recevied weather packets stored in our database for station/object JS2WAD-13. If no packets are shown the sender has not sent any weather packets the latest 10 day(s).
| Time | Temp. | Humidity | Pressure | Rain* | Wind** | Luminosity | Snow |
|---|---|---|---|---|---|---|---|
| 1778106378 | 18.33° C | 83% | 906.2 hPa | 0 mm | - | 72 W/m² | - |
| 1778106078 | 18.33° C | 82% | 906.2 hPa | 0 mm | - | 74 W/m² | - |
| 1778105778 | 17.78° C | 81% | 906.4 hPa | 0 mm | - | 72 W/m² | - |
| 1778105478 | 17.78° C | 83% | 906.2 hPa | 0 mm | - | 72 W/m² | - |
| 1778105178 | 17.78° C | 82% | 906.1 hPa | 0 mm | - | 67 W/m² | - |
| 1778104878 | 17.78° C | 84% | 906.2 hPa | 0 mm | - | 51 W/m² | - |
| 1778104578 | 17.78° C | 84% | 906.1 hPa | 0 mm | - | 35 W/m² | - |
| 1778104278 | 17.78° C | 85% | 906.1 hPa | 0 mm | - | 33 W/m² | - |
| 1778103978 | 17.22° C | 86% | 906 hPa | 0 mm | - | 35 W/m² | - |
| 1778103678 | 17.22° C | 84% | 906.2 hPa | 0 mm | - | 32 W/m² | - |
| 1778103378 | 17.22° C | 84% | 906.4 hPa | 0 mm | - | 42 W/m² | - |
| 1778103078 | 17.22° C | 84% | 906.3 hPa | 0 mm | - | 39 W/m² | - |
| 1778102778 | 17.22° C | 86% | 906.3 hPa | 0 mm | - | 30 W/m² | - |
| 1778102478 | 16.67° C | 85% | 906.2 hPa | 0 mm | - | 21 W/m² | - |
| 1778102178 | 16.67° C | 86% | 906.3 hPa | 0 mm | - | 18 W/m² | - |
| 1778101878 | 16.67° C | 86% | 906.4 hPa | 0 mm | - | 14 W/m² | - |
| 1778101578 | 16.67° C | 86% | 906.5 hPa | 0 mm | - | 21 W/m² | - |
| 1778101278 | 16.67° C | 88% | 906.3 hPa | 0 mm | - | 19 W/m² | - |
| 1778100978 | 16.67° C | 87% | 906.3 hPa | 0 mm | - | 16 W/m² | - |
| 1778100678 | 16.67° C | 86% | 906.3 hPa | 0 mm | - | 14 W/m² | - |
| 1778100378 | 16.67° C | 88% | 906.3 hPa | 0 mm | - | 18 W/m² | - |
| 1778100078 | 16.67° C | 87% | 906.4 hPa | 0 mm | - | 19 W/m² | - |
| 1778099778 | 16.67° C | 87% | 906.5 hPa | 0 mm | - | 19 W/m² | - |
| 1778099478 | 16.67° C | 87% | 906.4 hPa | 0 mm | - | 14 W/m² | - |
| 1778099178 | 16.11° C | 87% | 906.5 hPa | 0 mm | - | 11 W/m² | - |
* Rain latest hour (hover to see other rain measurements)
** Current wind speed in m/s (hover to see current wind gust speed)